Other Public Products
Issued by NWS Charleston, SC

Current Version | Previous Version | Graphics & Text | Print | Product List | Glossary On
Versions: 1 2 3 4 5 6 7 8 9 10 11 12 13 14 15 16 17 18 19 20 21 22 23 24 25 26 27 28 29 30 31 32 33 34 35 36 37 38 39 40 41 42 43 44 45 46 47 48 49 50
035 FPUS82 KCHS 181628 OPUCHS TEST...KCHS/KSAV Gateway Observations...TEST National Weather Service Charleston SC 1100 AM EST MON DEC 18 2017 NOTE: "fair" indicates few or no clouds below 12,000 feet with no significant weather and/or obstructions to visibility. SCZ050-WAZ558-NCZ071-TXZ119-213-PAZ071-DCZ001-FLZ074-172-MI076- NYZ176-178-MAZ016-IL014-TNZ027-NJZ106-GAZ044-MD014-181700- ...Gateway Observations for Charleston International... CITY SKY/WX TMP DP RH WIND PRES REMARKS Chas Airport CLOUDY 65 61 87 W9 30.20F Seattle LGT RAIN 49 47 93 SW12 30.04R Charlotte PTSUNNY 56 44 64 SW7 30.17F Dallas DFW CLOUDY 50 47 89 E6 30.19S FOG Dallas Love CLOUDY 49 47 93 SE6 30.21R FOG Philladelphia PTSUNNY 43 35 73 SW6 30.10F Wash National PTSUNNY 48 36 63 SE3 30.12F Baltimore PTSUNNY 48 36 63 SW3 30.10F Miami PTSUNNY 79 69 71 SE8 30.24S Detroit CLOUDY 39 36 89 SW14 29.94S FOG WCI 31 Newark CLOUDY 39 32 76 N5 30.08F WCI 36 Laguardia CLOUDY 39 32 76 VRB5 30.09F WCI 36 J F K CLOUDY 41 36 82 N6 30.07F Boston Logan CLOUDY 30 12 47 SE5 30.11F WCI 25 Ft. Lauderdale PTSUNNY 80 71 74 SE12 30.23S Chicago O`Hare DRIZZLE 42 39 89 W13 29.92S Chicago Midway DRIZZLE 45 44 97 SW14G22 29.93S FOG Houston Bush CLOUDY 62 57 83 E6 30.19S Houston Hobby CLOUDY 64 59 83 NE7 30.19R Nashville CLOUDY 50 48 93 SW6 30.19R Atlanta PTSUNNY 54 53 97 NW3 30.21S FOG $$ GAZ044-118-TXZ119-213-NCZ071-DCZ001-MDZ014-506-PAZ021-071-NJZ106- NYZ176-178-MAZ106-OHZ011-021-055-MIZ076-KYZ091-ILZ014-INZ047- MNZ060-ONZ431-181700- ...Gateway Observations for Savannah International... CITY SKY/WX TMP DP RH WIND PRES REMARKS Savannah Arpt CLOUDY 65 63 93 SW6 30.22F Atlanta PTSUNNY 54 53 97 NW3 30.21S FOG Charlotte PTSUNNY 56 44 64 SW7 30.17F Dallas DFW CLOUDY 50 47 89 E6 30.19S FOG Houston Bush CLOUDY 62 57 83 E6 30.19S Wash National PTSUNNY 48 36 63 SE3 30.12F Wash Dulles CLOUDY 48 35 60 CALM 30.11F Baltimore PTSUNNY 48 36 63 SW3 30.10F Philadelphia PTSUNNY 43 35 73 SW6 30.10F Newark CLOUDY 39 32 76 N5 30.08F WCI 36 Laguardia CLOUDY 39 32 76 VRB5 30.09F WCI 36 J F K CLOUDY 41 36 82 N6 30.07F Boston CLOUDY 30 12 47 SE5 30.11F WCI 25 Pittsburg CLOUDY 42 37 82 SW8 30.03F Akron CLOUDY 38 35 89 SW10 30.00F FOG WCI 31 Cleveland CLOUDY 40 37 89 S14 30.01F WCI 32 Cincinnati CLOUDY 44 44 100 SW8 30.10S FOG Columbus CLOUDY 42 42 100 SW12 30.06F Detroit CLOUDY 39 36 89 SW14 29.94S FOG WCI 31 Chicago O`Hare DRIZZLE 42 39 89 W13 29.92S Minneapolis CLOUDY 31 27 85 S10 29.79S WCI 22 Indianapolis CLOUDY 45 42 89 SW13 30.06F Toronto Canada DRIZZLE 34 30 86 SW5 29.90F FOG WCI 30 $$

USA.gov is the U.S. government's official web portal to all federal, state and local government web resources and services.